Montrose, CO

9:06 PM MDT on April 27, 2017 (GMT -0600)
Montrose Regional

Weather History for KMTJ - May, 2013

Change the Weather History Date:

Monday, May 27, 2013

  Actual Average Record
Temperature  
Mean Temperature 66 °F 62 °F  
Max Temperature 81 °F 78 °F 90 °F (2003)
Min Temperature 51 °F 46 °F 37 °F (1997)
Degree Days  
Heating Degree Days 0 4  
Month to date heating degree days 193 211  
Since 1 July heating degree days 6096 6149  
Cooling Degree Days 1 1  
Month to date cooling degree days 24 9  
Year to date cooling degree days 24 9  
Growing Degree Days 16 (Base 50)    
Moisture  
Dew Point 17 °F    
Average Humidity 19    
Maximum Humidity 29    
Minimum Humidity 8    
Precipitation  
Precipitation 0.00 in 0.02 in 0.01 in (2015)
Month to date precipitation 0.57 1.01  
Year to date precipitation 2.64 4.23  
Sea Level Pressure  
Sea Level Pressure 29.72 in    
Wind  
Wind Speed 9 mph (SSE)    
Max Wind Speed 21 mph    
Max Gust Speed 26 mph    
Visibility 10 miles    
Events      
T = Trace of Precipitation, MM = Missing Value Source: NWS Daily Summary

Daily Weather History Graph

Daily Weather History Graph

Search for Another Location

Airport or City:

Trip Planner

Search our weather history database for the weather conditions in past years. The results will help you decide how hot, cold, wet, or windy it might be!

Date:

Astronomy

May. 27, 2013 Rise Set
Actual Time 5:51 AM MDT 8:26 PM MDT
Civil Twilight 5:20 AM MDT 8:57 PM MDT
Nautical Twilight 4:42 AM MDT 9:35 PM MDT
Astronomical Twilight 3:59 AM MDT 10:18 PM MDT
Moon 11:09 PM MDT (5/27) 8:31 AM MDT (5/27)
Length of Visible Light 15h 36m
Length of Day
14h 35m
Waning Gibbous, 90% of the Moon is Illuminated
May 27
Waning Gibbous
May 31
Last Quarter
Jun 8
New
Jun 16
First Quarter
Jun 23
Full

Hourly Weather History & Observations

Time (MDT) Temp. Dew Point Humidity Pressure Visibility Wind Dir Wind Speed Gust Speed Precip Events Conditions
12:53 AM 55.9 °F 19.0 °F 24% 29.79 in 10.0 mi ESE 8.1 mph - N/A   Clear
1:53 AM 54.0 °F 21.0 °F 28% 29.78 in 10.0 mi SE 8.1 mph - N/A   Clear
2:53 AM 55.0 °F 19.0 °F 24% 29.75 in 10.0 mi SE 10.4 mph - N/A   Clear
3:53 AM 55.9 °F 16.0 °F 21% 29.76 in 10.0 mi East 8.1 mph - N/A   Clear
4:53 AM 54.0 °F 17.1 °F 23% 29.78 in 10.0 mi East 8.1 mph - N/A   Clear
5:53 AM 52.0 °F 19.0 °F 27% 29.79 in 10.0 mi SE 11.5 mph - N/A   Clear
6:53 AM 54.0 °F 23.0 °F 30% 29.80 in 10.0 mi ESE 8.1 mph - N/A   Clear
7:53 AM 61.0 °F 27.0 °F 27% 29.79 in 10.0 mi ESE 5.8 mph - N/A   Clear
8:53 AM 68.0 °F 19.9 °F 16% 29.78 in 10.0 mi ENE 5.8 mph - N/A   Clear
9:53 AM 72.0 °F 17.1 °F 12% 29.77 in 10.0 mi Calm Calm - N/A   Clear
10:53 AM 73.0 °F 18.0 °F 12% 29.77 in 10.0 mi NNW 10.4 mph - N/A   Clear
11:53 AM 75.0 °F 19.0 °F 12% 29.75 in 10.0 mi Variable 5.8 mph - N/A   Clear
12:53 PM 78.1 °F 16.0 °F 10% 29.74 in 10.0 mi SW 18.4 mph 23.0 mph N/A   Clear
1:53 PM 78.1 °F 15.1 °F 9% 29.72 in 10.0 mi Variable 6.9 mph 18.4 mph N/A   Clear
2:53 PM 80.1 °F 12.9 °F 8% 29.70 in 10.0 mi West 11.5 mph 25.3 mph N/A   Clear
3:53 PM 80.1 °F 12.9 °F 8% 29.67 in 10.0 mi WNW 13.8 mph 21.9 mph N/A   Clear
4:53 PM 79.0 °F 12.9 °F 8% 29.65 in 10.0 mi WSW 15.0 mph 20.7 mph N/A   Clear
5:53 PM 79.0 °F 15.1 °F 9% 29.64 in 10.0 mi WSW 11.5 mph 20.7 mph N/A   Clear
6:53 PM 77.0 °F 16.0 °F 10% 29.64 in 10.0 mi WSW 11.5 mph 20.7 mph N/A   Clear
7:53 PM 73.9 °F 17.1 °F 12% 29.63 in 10.0 mi SW 9.2 mph - N/A   Clear
8:53 PM 69.1 °F 17.1 °F 14% 29.64 in 10.0 mi SSW 9.2 mph - N/A   Clear
9:53 PM 64.9 °F 16.0 °F 15% 29.66 in 10.0 mi SE 6.9 mph - N/A   Clear
10:53 PM 64.9 °F 15.1 °F 15% 29.67 in 10.0 mi Variable 3.5 mph - N/A   Clear
11:53 PM 59.0 °F 18.0 °F 20% 29.68 in 10.0 mi ESE 3.5 mph - N/A   Clear